Location: Ago
(8.4667°N, 4.4833°E)
Time: 23:47:45
(UTC+00:00)

NOSS 3-4 (C) - Pass Details

Date: 18 September 2020
Orbit: 886 x 1326 km, 63.4° (Epoch: 19 October)

Event Time Altitude Azimuth Distance (km) Brightness Sun altitude
Rises 18:40:16 0° 189° (S) 3,594 6.5 -15.7°
Reaches altitude 10° 18:42:59 10° 182° (S) 2,608 5.7 -16.3°
Maximum altitude 18:48:34 41° 113° (ESE) 1,265 3.6 -17.7°
Enters shadow 18:51:39 23° 57° (ENE) 1,773 4.4 -18.5°
